IRS P2

Satellite information

Favourite Embed

Satellite Type and Status

PAYLOADIN ORBIT

Key statistics

Satellite IRS P2 at a glance.

Uptime

11223

Days in orbit

Revolutions

≈ 14.2

Per day

Orbit

SSO

Sun Synchronous Orbit

Inclination

98.9

Latest

Satellite identification and parameters

Extended collection of information and parameters for IRS P2.

Object identification

Identified? True

Debris? False

Object name: IRS P2

International designator: 1994-068A

Object number (NORAD): 23323

Object ID (CCSDS): 23323

Country: INDIA (IND)

Current information (Y/N): Y

RCS size: LARGE

Orbital parameters

Period: 101.085 minutes

Inclination: 98.9435 deg

SMA: 7188.182 km

Apoapsis: 810.914 km

Periapsis: 809.179 km

RAAN: 226.7613 deg

Eccentricy: 0.0001207

Argument of periapsis: 89.6615 deg

Mean anomaly: 270.4701 deg

Mean motion: 14.24538452 rev/day

Mean motion (dot): 0.0000007 rev/day2

B* drag term: 0.00005001 1/REarth

Two-line elements (TLE)

Creation date: July 5, 2025, 5:45 p.m.

Reference frame: TEME

Reference center: EARTH

Epoch: July 5, 2025, 2:15 p.m. UTC

TLE line 0: 0 IRS P2

TLE line 1: 1 23323U 94068A 25186.59442930 .00000070 00000-0 50010-4 0 9995

TLE line 2: 2 23323 98.9435 226.7613 0001207 89.6615 270.4701 14.24538452595711

Live tracking on map

Real-time ground track for satellite IRS P2.

In-orbit conjunctions

A list of the most updated potential collisions computed for object IRS P2.

Target Orbit TCA Probability of collision Miss distance Type
CZ-6A DEB SSO 2025-06-24 02:14:25 0.0002154797 799.0 (m) DEBRIS
METEOR 2-8 DEB LEO 2025-01-21 18:14:01 0.0002023027 366.0 (m) DEBRIS
FENGYUN 1C DEB SSO 2024-10-23 07:32:02 0.0002037108 416.0 (m) DEBRIS
COSMOS 2251 DEB LEO 2024-10-18 23:56:50 0.0002707806 600.0 (m) DEBRIS
THOR BURNER 2 R/B SSO 2024-10-03 02:37:30 0.0001286666 179.0 (m) ROCKET BODY

Associated space launch

IRS-P2 (Indian Remote Sensing Satellite) was an Indian experimental earth observation satellite.

IRS P2 was lifted into orbit during the mission ‘PSLV | IRS-P2’, on board a PSLV space rocket.

The launch took place on Oct. 15, 1994, 5:05 a.m. from Satish Dhawan Space Centre First Launch Pad.

For more information about the launch, click the button.

Launch to space PSLV | IRS-P2
PSLV | IRS-P2

Agency: N/A

Status: Launch Successful

Launch date: Oct. 15, 1994, 5:05 a.m. UTC

Rocket: PSLV

Launch pad: Satish Dhawan Space Centre First Launch Pad

Location: Satish Dhawan Space Centre, India

...

Latest news about this satellite

There are no fresh news available about this satellite. Check back as we update our databases every day.


Newsletter sign-up

Weekly statistics, charts and insights to help you stay on top of the space industry.